Time,TemperatureF,DewpointF,PressureIn,WindDirection,WindDirectionDegrees,WindSpeedMPH,WindSpeedGustMPH,Humidity,HourlyPrecipIn,Conditions,Clouds,dailyrainin,SoftwareType,DateUTC
2013-01-10 00:00:00,57.0,55.3,30.38,WNW,292,1.0,6.0,94,0.00,,,0.00,Weather View 32 v70,2013-01-10 05:00:00,
2013-01-10 00:01:00,57.0,55.3,30.38,NNW,338,3.0,6.0,94,0.00,,,0.00,Weather View 32 v70,2013-01-10 05:01:00,
2013-01-10 00:06:00,57.0,55.3,30.38,NW,315,3.0,6.0,94,0.00,,,0.00,Weather View 32 v70,2013-01-10 05:06:00,
2013-01-10 00:11:00,57.0,55.3,30.37,West,270,3.0,6.0,94,0.00,,,0.00,Weather View 32 v70,2013-01-10 05:11:00,
2013-01-10 00:16:00,57.0,55.3,30.38,WNW,292,3.0,6.0,94,0.00,,,0.00,Weather View 32 v70,2013-01-10 05:16:00,
2013-01-10 00:21:00,57.0,55.3,30.37,West,270,3.0,6.0,94,0.00,,,0.00,Weather View 32 v70,2013-01-10 05:21:00,
2013-01-10 00:26:00,57.0,55.3,30.38,West,270,3.0,6.0,94,0.00,,,0.00,Weather View 32 v70,2013-01-10 05:26:00,
2013-01-10 00:31:00,57.0,55.3,30.38,WNW,292,5.0,6.0,94,0.00,,,0.00,Weather View 32 v70,2013-01-10 05:31:00,
2013-01-10 00:36:00,57.0,55.3,30.38,WNW,292,4.0,8.0,94,0.00,,,0.00,Weather View 32 v70,2013-01-10 05:36:00,
2013-01-10 00:41:00,57.0,55.3,30.38,NW,315,4.0,8.0,94,0.00,,,0.00,Weather View 32 v70,2013-01-10 05:41:00,
2013-01-10 00:46:00,57.0,55.3,30.38,WSW,248,4.0,9.0,94,0.00,,,0.00,Weather View 32 v70,2013-01-10 05:46:00,
2013-01-10 00:51:00,57.0,55.3,30.38,SW,225,3.0,9.0,94,0.00,,,0.00,Weather View 32 v70,2013-01-10 05:51:00,
2013-01-10 00:56:00,57.0,55.3,30.38,WSW,248,6.0,9.0,94,0.00,,,0.00,Weather View 32 v70,2013-01-10 05:56:00,
2013-01-10 01:01:00,57.0,55.3,30.38,West,270,4.0,9.0,94,0.00,,,0.00,Weather View 32 v70,2013-01-10 06:01:00,
2013-01-10 01:06:00,57.0,55.3,30.38,West,270,3.0,9.0,94,0.00,,,0.00,Weather View 32 v70,2013-01-10 06:06:00,
2013-01-10 01:11:00,57.0,55.3,30.38,West,270,4.0,9.0,94,0.00,,,0.00,Weather View 32 v70,2013-01-10 06:11:00,
2013-01-10 01:16:00,57.0,55.3,30.38,West,270,3.0,9.0,94,0.00,,,0.00,Weather View 32 v70,2013-01-10 06:16:00,
2013-01-10 01:21:00,57.0,55.3,30.37,NNW,338,3.0,9.0,94,0.00,,,0.00,Weather View 32 v70,2013-01-10 06:21:00,
2013-01-10 01:26:00,57.0,55.6,30.37,NW,315,3.0,9.0,95,0.00,,,0.00,Weather View 32 v70,2013-01-10 06:26:00,
2013-01-10 01:31:00,57.0,55.6,30.38,WNW,292,3.0,9.0,95,0.00,,,0.00,Weather View 32 v70,2013-01-10 06:31:00,
2013-01-10 01:36:00,57.0,55.6,30.38,WSW,248,3.0,9.0,95,0.00,,,0.00,Weather View 32 v70,2013-01-10 06:36:00,
2013-01-10 01:41:00,57.0,55.6,30.38,WSW,248,4.0,9.0,95,0.00,,,0.00,Weather View 32 v70,2013-01-10 06:41:00,
2013-01-10 01:46:00,57.0,55.6,30.38,WSW,248,3.0,6.0,95,0.00,,,0.00,Weather View 32 v70,2013-01-10 06:46:00,
2013-01-10 01:51:00,57.0,55.6,30.38,WNW,292,4.0,6.0,95,0.00,,,0.00,Weather View 32 v70,2013-01-10 06:51:00,
2013-01-10 01:56:00,57.0,55.6,30.38,West,270,1.0,6.0,95,0.00,,,0.00,Weather View 32 v70,2013-01-10 06:56:00,
2013-01-10 02:01:00,57.0,55.6,30.37,NW,315,1.0,6.0,95,0.00,,,0.00,Weather View 32 v70,2013-01-10 07:01:00,
2013-01-10 02:06:00,57.0,55.9,30.38,NW,315,3.0,6.0,96,0.00,,,0.00,Weather View 32 v70,2013-01-10 07:06:00,
2013-01-10 02:11:00,57.0,55.9,30.37,NW,315,3.0,6.0,96,0.00,,,0.00,Weather View 32 v70,2013-01-10 07:11:00,
2013-01-10 02:16:00,57.0,55.9,30.37,West,270,2.0,6.0,96,0.00,,,0.00,Weather View 32 v70,2013-01-10 07:16:00,
2013-01-10 02:21:00,57.0,55.9,30.37,NNW,338,0.0,6.0,96,0.00,,,0.00,Weather View 32 v70,2013-01-10 07:21:00,
2013-01-10 02:26:00,57.0,55.9,30.37,North,0,0.0,6.0,96,0.00,,,0.00,Weather View 32 v70,2013-01-10 07:26:00,
2013-01-10 02:31:00,57.0,55.9,30.38,WSW,248,0.0,6.0,96,0.00,,,0.00,Weather View 32 v70,2013-01-10 07:31:00,
2013-01-10 02:36:00,57.0,55.9,30.37,WNW,292,0.0,6.0,96,0.00,,,0.00,Weather View 32 v70,2013-01-10 07:36:00,
2013-01-10 02:41:00,57.0,56.2,30.37,NW,315,0.0,6.0,97,0.00,,,0.00,Weather View 32 v70,2013-01-10 07:41:00,
2013-01-10 02:46:00,57.0,56.2,30.37,WSW,248,3.0,6.0,97,0.00,,,0.00,Weather View 32 v70,2013-01-10 07:46:00,
2013-01-10 02:51:00,57.0,56.2,30.37,West,270,3.0,5.0,97,0.00,,,0.00,Weather View 32 v70,2013-01-10 07:51:00,
2013-01-10 02:56:00,57.0,56.2,30.37,WSW,248,3.0,5.0,97,0.00,,,0.00,Weather View 32 v70,2013-01-10 07:56:00,
2013-01-10 03:01:00,57.0,56.2,30.37,WSW,248,3.0,5.0,97,0.00,,,0.00,Weather View 32 v70,2013-01-10 08:01:00,
2013-01-10 03:06:00,57.0,56.4,30.37,WSW,248,3.0,5.0,98,0.00,,,0.00,Weather View 32 v70,2013-01-10 08:06:00,
2013-01-10 03:11:00,57.0,56.4,30.37,West,270,3.0,5.0,98,0.00,,,0.00,Weather View 32 v70,2013-01-10 08:11:00,
2013-01-10 03:16:00,57.0,56.4,30.37,West,270,1.0,5.0,98,0.00,,,0.00,Weather View 32 v70,2013-01-10 08:16:00,
2013-01-10 03:21:00,57.0,56.4,30.38,WSW,248,3.0,5.0,98,0.00,,,0.00,Weather View 32 v70,2013-01-10 08:21:00,
2013-01-10 03:26:00,57.0,56.4,30.37,West,270,1.0,5.0,98,0.00,,,0.00,Weather View 32 v70,2013-01-10 08:26:00,
2013-01-10 03:31:00,57.0,56.4,30.37,WSW,248,3.0,5.0,98,0.00,,,0.00,Weather View 32 v70,2013-01-10 08:31:00,
2013-01-10 03:36:00,57.0,56.4,30.37,WNW,292,0.0,5.0,98,0.00,,,0.00,Weather View 32 v70,2013-01-10 08:36:00,
2013-01-10 03:41:00,57.0,56.4,30.37,WSW,248,2.0,5.0,98,0.00,,,0.00,Weather View 32 v70,2013-01-10 08:41:00,
2013-01-10 03:46:00,57.0,56.4,30.37,West,270,1.0,5.0,98,0.00,,,0.00,Weather View 32 v70,2013-01-10 08:46:00,
2013-01-10 03:51:00,57.0,56.4,30.37,West,270,3.0,5.0,98,0.00,,,0.00,Weather View 32 v70,2013-01-10 08:51:00,
2013-01-10 03:56:00,57.0,56.4,30.37,WSW,248,3.0,5.0,98,0.00,,,0.00,Weather View 32 v70,2013-01-10 08:56:00,
2013-01-10 04:01:00,57.0,56.4,30.36,WSW,248,4.0,5.0,98,0.00,,,0.00,Weather View 32 v70,2013-01-10 09:01:00,
2013-01-10 04:06:00,57.0,56.4,30.37,WSW,248,3.0,5.0,98,0.00,,,0.00,Weather View 32 v70,2013-01-10 09:06:00,
2013-01-10 04:11:00,57.0,56.4,30.37,SSE,158,1.0,6.0,98,0.00,,,0.00,Weather View 32 v70,2013-01-10 09:11:00,
2013-01-10 04:17:00,57.0,56.7,30.37,WSW,248,2.0,6.0,99,0.00,,,0.00,Weather View 32 v70,2013-01-10 09:17:00,
2013-01-10 04:22:00,57.0,56.7,30.37,West,270,3.0,6.0,99,0.00,,,0.00,Weather View 32 v70,2013-01-10 09:22:00,
2013-01-10 04:27:00,57.0,56.7,30.37,SSW,202,3.0,6.0,99,0.00,,,0.00,Weather View 32 v70,2013-01-10 09:27:00,
2013-01-10 04:32:00,57.0,56.7,30.37,WSW,248,1.0,6.0,99,0.00,,,0.00,Weather View 32 v70,2013-01-10 09:32:00,
2013-01-10 04:37:00,57.0,56.7,30.36,SSE,158,0.0,6.0,99,0.00,,,0.00,Weather View 32 v70,2013-01-10 09:37:00,
2013-01-10 04:42:00,57.0,56.7,30.36,SW,225,2.0,6.0,99,0.00,,,0.00,Weather View 32 v70,2013-01-10 09:42:00,
2013-01-10 04:47:00,57.0,56.7,30.36,South,180,3.0,6.0,99,0.00,,,0.00,Weather View 32 v70,2013-01-10 09:47:00,
2013-01-10 04:52:00,57.0,56.7,30.36,WSW,248,5.0,6.0,99,0.00,,,0.00,Weather View 32 v70,2013-01-10 09:52:00,
2013-01-10 04:57:00,57.0,56.7,30.36,WSW,248,2.0,6.0,99,0.00,,,0.00,Weather View 32 v70,2013-01-10 09:57:00,
2013-01-10 05:02:00,57.0,56.7,30.36,ENE,68,2.0,6.0,99,0.00,,,0.00,Weather View 32 v70,2013-01-10 10:02:00,
2013-01-10 05:07:00,57.0,56.7,30.36,ESE,112,0.0,6.0,99,0.00,,,0.00,Weather View 32 v70,2013-01-10 10:07:00,
2013-01-10 05:12:00,56.0,55.7,30.36,ESE,112,1.0,6.0,99,0.00,,,0.00,Weather View 32 v70,2013-01-10 10:12:00,
2013-01-10 05:17:00,56.0,55.7,30.36,SE,135,0.0,6.0,99,0.00,,,0.00,Weather View 32 v70,2013-01-10 10:17:00,
2013-01-10 05:22:00,56.0,55.7,30.35,SE,135,0.0,6.0,99,0.00,,,0.00,Weather View 32 v70,2013-01-10 10:22:00,
2013-01-10 05:27:00,56.0,56.0,30.35,SE,135,0.0,5.0,100,0.00,,,0.00,Weather View 32 v70,2013-01-10 10:27:00,
2013-01-10 05:32:00,56.0,56.0,30.35,ENE,68,1.0,5.0,100,0.00,,,0.00,Weather View 32 v70,2013-01-10 10:32:00,
2013-01-10 05:37:00,56.0,56.0,30.35,ESE,112,1.0,5.0,100,0.00,,,0.00,Weather View 32 v70,2013-01-10 10:37:00,
2013-01-10 05:42:00,55.0,55.0,30.36,ESE,112,0.0,5.0,100,0.00,,,0.00,Weather View 32 v70,2013-01-10 10:42:00,
2013-01-10 05:47:00,55.0,55.0,30.36,SW,225,1.0,5.0,100,0.00,,,0.00,Weather View 32 v70,2013-01-10 10:47:00,
2013-01-10 05:52:00,55.0,55.0,30.36,SSW,202,1.0,5.0,100,0.00,,,0.00,Weather View 32 v70,2013-01-10 10:52:00,
2013-01-10 05:57:00,55.0,55.0,30.36,SSW,202,1.0,3.0,100,0.00,,,0.00,Weather View 32 v70,2013-01-10 10:57:00,
2013-01-10 06:02:00,54.0,54.0,30.36,SSW,202,2.0,3.0,100,0.00,,,0.00,Weather View 32 v70,2013-01-10 11:02:00,
2013-01-10 06:07:00,54.0,54.0,30.36,SSW,202,3.0,3.0,100,0.00,,,0.00,Weather View 32 v70,2013-01-10 11:07:00,
2013-01-10 06:12:00,54.0,54.0,30.37,SW,225,2.0,3.0,100,0.00,,,0.00,Weather View 32 v70,2013-01-10 11:12:00,
2013-01-10 06:17:00,54.0,54.0,30.37,WSW,248,1.0,3.0,100,0.00,,,0.00,Weather View 32 v70,2013-01-10 11:17:00,
2013-01-10 06:22:00,55.0,55.0,30.37,WSW,248,2.0,3.0,100,0.00,,,0.00,Weather View 32 v70,2013-01-10 11:22:00,
2013-01-10 06:27:00,55.0,55.0,30.37,SW,225,1.0,3.0,100,0.00,,,0.00,Weather View 32 v70,2013-01-10 11:27:00,
2013-01-10 06:32:00,55.0,55.0,30.37,WSW,248,3.0,3.0,100,0.00,,,0.00,Weather View 32 v70,2013-01-10 11:32:00,
2013-01-10 06:37:00,55.0,55.0,30.37,SSW,202,2.0,3.0,100,0.00,,,0.00,Weather View 32 v70,2013-01-10 11:37:00,
2013-01-10 06:42:00,55.0,55.0,30.37,ESE,112,0.0,3.0,100,0.00,,,0.00,Weather View 32 v70,2013-01-10 11:42:00,
2013-01-10 06:47:00,55.0,55.0,30.37,ENE,68,0.0,3.0,100,0.00,,,0.00,Weather View 32 v70,2013-01-10 11:47:00,
2013-01-10 06:52:00,55.0,55.0,30.37,ENE,68,1.0,3.0,100,0.00,,,0.00,Weather View 32 v70,2013-01-10 11:52:00,
2013-01-10 06:57:00,55.0,55.0,30.37,ENE,68,2.0,3.0,100,0.00,,,0.00,Weather View 32 v70,2013-01-10 11:57:00,
2013-01-10 07:02:00,55.0,55.0,30.37,ESE,112,0.0,3.0,100,0.00,,,0.00,Weather View 32 v70,2013-01-10 12:02:00,
2013-01-10 07:07:00,54.0,54.0,30.37,ESE,112,0.0,3.0,100,0.00,,,0.00,Weather View 32 v70,2013-01-10 12:07:00,
2013-01-10 07:12:00,54.0,54.0,30.37,SSE,158,1.0,3.0,100,0.00,,,0.00,Weather View 32 v70,2013-01-10 12:12:00,
2013-01-10 07:17:00,54.0,54.0,30.38,South,180,1.0,3.0,100,0.00,,,0.00,Weather View 32 v70,2013-01-10 12:17:00,
2013-01-10 07:22:00,54.0,54.0,30.38,South,180,1.0,3.0,100,0.00,,,0.00,Weather View 32 v70,2013-01-10 12:22:00,
2013-01-10 07:27:00,54.0,54.0,30.38,ENE,68,0.0,3.0,100,0.00,,,0.00,Weather View 32 v70,2013-01-10 12:27:00,
2013-01-10 07:32:00,54.0,54.0,30.38,ESE,112,0.0,3.0,100,0.00,,,0.00,Weather View 32 v70,2013-01-10 12:32:00,
2013-01-10 07:37:00,54.0,54.0,30.38,ESE,112,0.0,3.0,100,0.00,,,0.00,Weather View 32 v70,2013-01-10 12:37:00,
2013-01-10 07:42:00,54.0,54.0,30.38,ESE,112,0.0,3.0,100,0.00,,,0.00,Weather View 32 v70,2013-01-10 12:42:00,
2013-01-10 07:47:00,54.0,54.0,30.38,SE,135,0.0,3.0,100,0.00,,,0.00,Weather View 32 v70,2013-01-10 12:47:00,
2013-01-10 07:52:00,53.0,53.0,30.38,ESE,112,0.0,3.0,100,0.00,,,0.00,Weather View 32 v70,2013-01-10 12:52:00,
2013-01-10 07:57:00,53.0,53.0,30.38,East,90,0.0,3.0,100,0.00,,,0.00,Weather View 32 v70,2013-01-10 12:57:00,
2013-01-10 08:02:00,53.0,53.0,30.39,ESE,112,0.0,2.0,100,0.00,,,0.00,Weather View 32 v70,2013-01-10 13:02:00,
2013-01-10 08:07:00,54.0,54.0,30.39,East,90,0.0,2.0,100,0.00,,,0.00,Weather View 32 v70,2013-01-10 13:07:00,
2013-01-10 08:12:00,54.0,54.0,30.39,ESE,112,1.0,2.0,100,0.00,,,0.00,Weather View 32 v70,2013-01-10 13:12:00,
2013-01-10 08:17:00,54.0,54.0,30.39,East,90,0.0,3.0,100,0.00,,,0.00,Weather View 32 v70,2013-01-10 13:17:00,
2013-01-10 08:22:00,55.0,55.0,30.39,East,90,0.0,3.0,100,0.00,,,0.00,Weather View 32 v70,2013-01-10 13:22:00,
2013-01-10 08:27:00,55.0,55.0,30.39,ESE,112,0.0,3.0,100,0.00,,,0.00,Weather View 32 v70,2013-01-10 13:27:00,
2013-01-10 08:32:00,55.0,55.0,30.40,ESE,112,0.0,3.0,100,0.00,,,0.00,Weather View 32 v70,2013-01-10 13:32:00,
2013-01-10 08:37:00,55.0,55.0,30.40,ESE,112,0.0,3.0,100,0.00,,,0.00,Weather View 32 v70,2013-01-10 13:37:00,
2013-01-10 08:42:00,55.0,55.0,30.40,ESE,112,0.0,3.0,100,0.00,,,0.00,Weather View 32 v70,2013-01-10 13:42:00,
2013-01-10 08:47:00,55.0,55.0,30.41,ENE,68,0.0,3.0,100,0.00,,,0.00,Weather View 32 v70,2013-01-10 13:47:00,
2013-01-10 08:52:00,55.0,55.0,30.41,East,90,0.0,3.0,100,0.00,,,0.00,Weather View 32 v70,2013-01-10 13:52:00,
2013-01-10 08:57:00,55.0,55.0,30.41,ESE,112,0.0,3.0,100,0.00,,,0.00,Weather View 32 v70,2013-01-10 13:57:00,
2013-01-10 09:02:00,55.0,55.0,30.41,East,90,0.0,3.0,100,0.00,,,0.00,Weather View 32 v70,2013-01-10 14:02:00,
2013-01-10 09:07:00,55.0,55.0,30.41,ESE,112,0.0,3.0,100,0.00,,,0.00,Weather View 32 v70,2013-01-10 14:07:00,
2013-01-10 09:12:00,55.0,55.0,30.41,East,90,0.0,3.0,100,0.00,,,0.00,Weather View 32 v70,2013-01-10 14:12:00,
2013-01-10 09:17:00,56.0,56.0,30.41,East,90,0.0,1.0,100,0.00,,,0.00,Weather View 32 v70,2013-01-10 14:17:00,
2013-01-10 09:22:00,56.0,56.0,30.41,ENE,68,0.0,1.0,100,0.00,,,0.00,Weather View 32 v70,2013-01-10 14:22:00,
2013-01-10 09:27:00,56.0,56.0,30.41,North,0,0.0,0.0,100,0.00,,,0.00,Weather View 32 v70,2013-01-10 14:27:00,
2013-01-10 09:32:00,56.0,56.0,30.41,ENE,68,0.0,0.0,100,0.00,,,0.00,Weather View 32 v70,2013-01-10 14:32:00,
2013-01-10 09:37:00,56.0,56.0,30.41,East,90,0.0,0.0,100,0.00,,,0.00,Weather View 32 v70,2013-01-10 14:37:00,
2013-01-10 09:42:00,56.0,56.0,30.41,NE,45,2.0,3.0,100,0.00,,,0.00,Weather View 32 v70,2013-01-10 14:42:00,
2013-01-10 09:47:00,56.0,56.0,30.42,ENE,68,1.0,5.0,100,0.00,,,0.00,Weather View 32 v70,2013-01-10 14:47:00,
2013-01-10 09:52:00,56.0,56.0,30.41,ENE,68,1.0,5.0,100,0.00,,,0.00,Weather View 32 v70,2013-01-10 14:52:00,
2013-01-10 09:57:00,56.0,56.0,30.42,ENE,68,3.0,5.0,100,0.00,,,0.00,Weather View 32 v70,2013-01-10 14:57:00,
2013-01-10 10:02:00,55.0,55.0,30.42,NNE,22,3.0,8.0,100,0.00,,,0.00,Weather View 32 v70,2013-01-10 15:02:00,
2013-01-10 10:08:00,55.0,55.0,30.42,East,90,3.0,8.0,100,0.00,,,0.00,Weather View 32 v70,2013-01-10 15:08:00,
2013-01-10 10:13:00,55.0,55.0,30.42,NE,45,3.0,8.0,100,0.00,,,0.00,Weather View 32 v70,2013-01-10 15:13:00,
2013-01-10 10:18:00,55.0,55.0,30.42,NE,45,4.0,8.0,100,0.00,,,0.00,Weather View 32 v70,2013-01-10 15:18:00,
2013-01-10 10:23:00,55.0,55.0,30.42,NE,45,4.0,8.0,100,0.00,,,0.00,Weather View 32 v70,2013-01-10 15:23:00,
2013-01-10 10:28:00,55.0,55.0,30.42,NNE,22,5.0,8.0,100,0.00,,,0.00,Weather View 32 v70,2013-01-10 15:28:00,
2013-01-10 10:33:00,55.0,55.0,30.42,NE,45,4.0,8.0,100,0.00,,,0.00,Weather View 32 v70,2013-01-10 15:33:00,
2013-01-10 10:38:00,55.0,55.0,30.42,NNE,22,5.0,8.0,100,0.00,,,0.00,Weather View 32 v70,2013-01-10 15:38:00,
2013-01-10 10:43:00,55.0,55.0,30.42,NNE,22,3.0,8.0,100,0.00,,,0.00,Weather View 32 v70,2013-01-10 15:43:00,
2013-01-10 10:48:00,55.0,55.0,30.42,North,0,2.0,8.0,100,0.00,,,0.00,Weather View 32 v70,2013-01-10 15:48:00,
2013-01-10 10:53:00,55.0,55.0,30.42,ESE,112,1.0,8.0,100,0.00,,,0.00,Weather View 32 v70,2013-01-10 15:53:00,
2013-01-10 10:58:00,55.0,55.0,30.42,North,0,2.0,8.0,100,0.00,,,0.00,Weather View 32 v70,2013-01-10 15:58:00,
2013-01-10 11:03:00,55.0,55.0,30.42,ENE,68,4.0,7.0,100,0.00,,,0.00,Weather View 32 v70,2013-01-10 16:03:00,
2013-01-10 11:08:00,55.0,55.0,30.42,NE,45,3.0,7.0,100,0.00,,,0.00,Weather View 32 v70,2013-01-10 16:08:00,
2013-01-10 11:13:00,55.0,55.0,30.42,NE,45,5.0,7.0,100,0.00,,,0.00,Weather View 32 v70,2013-01-10 16:13:00,
2013-01-10 11:18:00,56.0,56.0,30.42,NNE,22,4.0,6.0,100,0.00,,,0.00,Weather View 32 v70,2013-01-10 16:18:00,
2013-01-10 11:23:00,55.0,55.0,30.42,NE,45,4.0,6.0,100,0.00,,,0.00,Weather View 32 v70,2013-01-10 16:23:00,
2013-01-10 11:28:00,55.0,55.0,30.42,NNE,22,4.0,6.0,100,0.00,,,0.00,Weather View 32 v70,2013-01-10 16:28:00,
2013-01-10 11:33:00,55.0,55.0,30.41,NE,45,3.0,6.0,100,0.00,,,0.00,Weather View 32 v70,2013-01-10 16:33:00,
2013-01-10 11:38:00,55.0,55.0,30.41,NNE,22,4.0,7.0,100,0.00,,,0.00,Weather View 32 v70,2013-01-10 16:38:00,
2013-01-10 11:43:00,55.0,55.0,30.41,NNE,22,2.0,7.0,100,0.00,,,0.00,Weather View 32 v70,2013-01-10 16:43:00,
2013-01-10 11:48:00,55.0,55.0,30.41,ENE,68,2.0,7.0,100,0.00,,,0.00,Weather View 32 v70,2013-01-10 16:48:00,
2013-01-10 11:53:00,55.0,55.0,30.40,East,90,2.0,7.0,100,0.00,,,0.00,Weather View 32 v70,2013-01-10 16:53:00,
2013-01-10 11:58:00,55.0,55.0,30.40,NE,45,3.0,7.0,100,0.00,,,0.00,Weather View 32 v70,2013-01-10 16:58:00,
2013-01-10 12:03:00,56.0,56.0,30.39,NE,45,3.0,7.0,100,0.00,,,0.00,Weather View 32 v70,2013-01-10 17:03:00,
2013-01-10 12:08:00,56.0,56.0,30.39,NE,45,5.0,7.0,100,0.00,,,0.00,Weather View 32 v70,2013-01-10 17:08:00,
2013-01-10 12:13:00,56.0,56.0,30.39,NNW,338,2.0,7.0,100,0.00,,,0.00,Weather View 32 v70,2013-01-10 17:13:00,
2013-01-10 12:18:00,56.0,56.0,30.39,NE,45,1.0,7.0,100,0.00,,,0.00,Weather View 32 v70,2013-01-10 17:18:00,
2013-01-10 12:23:00,57.0,57.0,30.39,ENE,68,0.0,7.0,100,0.00,,,0.00,Weather View 32 v70,2013-01-10 17:23:00,
2013-01-10 12:28:00,57.0,57.0,30.39,North,0,3.0,7.0,100,0.00,,,0.00,Weather View 32 v70,2013-01-10 17:28:00,
2013-01-10 12:33:00,57.0,57.0,30.38,East,90,4.0,7.0,100,0.00,,,0.00,Weather View 32 v70,2013-01-10 17:33:00,
2013-01-10 12:38:00,57.0,57.0,30.37,ENE,68,6.0,7.0,100,0.00,,,0.00,Weather View 32 v70,2013-01-10 17:38:00,
2013-01-10 12:43:00,57.0,57.0,30.37,NNE,22,3.0,7.0,100,0.00,,,0.00,Weather View 32 v70,2013-01-10 17:43:00,
2013-01-10 12:48:00,57.0,56.7,30.37,ENE,68,3.0,7.0,99,0.00,,,0.00,Weather View 32 v70,2013-01-10 17:48:00,
2013-01-10 12:53:00,58.0,57.4,30.37,ENE,68,3.0,7.0,98,0.00,,,0.00,Weather View 32 v70,2013-01-10 17:53:00,
2013-01-10 12:58:00,58.0,57.4,30.36,ESE,112,0.0,7.0,98,0.00,,,0.00,Weather View 32 v70,2013-01-10 17:58:00,
2013-01-10 13:03:00,58.0,57.4,30.36,East,90,1.0,7.0,98,0.00,,,0.00,Weather View 32 v70,2013-01-10 18:03:00,
2013-01-10 13:08:00,59.0,58.1,30.36,ENE,68,2.0,7.0,97,0.00,,,0.00,Weather View 32 v70,2013-01-10 18:08:00,
2013-01-10 13:13:00,59.0,57.9,30.36,NW,315,3.0,6.0,96,0.00,,,0.00,Weather View 32 v70,2013-01-10 18:13:00,
2013-01-10 13:18:00,59.0,57.9,30.35,ESE,112,1.0,6.0,96,0.00,,,0.00,Weather View 32 v70,2013-01-10 18:18:00,
2013-01-10 13:23:00,59.0,57.6,30.35,ENE,68,2.0,6.0,95,0.00,,,0.00,Weather View 32 v70,2013-01-10 18:23:00,
2013-01-10 13:28:00,60.0,58.3,30.35,NNW,338,2.0,6.0,94,0.00,,,0.00,Weather View 32 v70,2013-01-10 18:28:00,
2013-01-10 13:33:00,60.0,58.0,30.34,ENE,68,3.0,6.0,93,0.00,,,0.00,Weather View 32 v70,2013-01-10 18:33:00,
2013-01-10 13:38:00,60.0,58.0,30.34,ENE,68,0.0,6.0,93,0.00,,,0.00,Weather View 32 v70,2013-01-10 18:38:00,
2013-01-10 13:43:00,60.0,57.7,30.34,NE,45,2.0,5.0,92,0.00,,,0.00,Weather View 32 v70,2013-01-10 18:43:00,
2013-01-10 13:48:00,60.0,57.7,30.34,ESE,112,4.0,5.0,92,0.00,,,0.00,Weather View 32 v70,2013-01-10 18:48:00,
2013-01-10 13:53:00,60.0,57.4,30.34,WSW,248,1.0,5.0,91,0.00,,,0.00,Weather View 32 v70,2013-01-10 18:53:00,
2013-01-10 13:58:00,60.0,57.4,30.33,North,0,1.0,5.0,91,0.00,,,0.00,Weather View 32 v70,2013-01-10 18:58:00,
2013-01-10 14:03:00,60.0,57.0,30.33,ENE,68,5.0,6.0,90,0.00,,,0.00,Weather View 32 v70,2013-01-10 19:03:00,
2013-01-10 14:08:00,61.0,57.7,30.33,NNE,22,3.0,6.0,89,0.00,,,0.00,Weather View 32 v70,2013-01-10 19:08:00,
2013-01-10 14:13:00,61.0,57.7,30.33,NNE,22,3.0,6.0,89,0.00,,,0.00,Weather View 32 v70,2013-01-10 19:13:00,
2013-01-10 14:18:00,61.0,57.4,30.33,NNE,22,2.0,6.0,88,0.00,,,0.00,Weather View 32 v70,2013-01-10 19:18:00,
2013-01-10 14:23:00,61.0,57.1,30.33,ENE,68,0.0,6.0,87,0.00,,,0.00,Weather View 32 v70,2013-01-10 19:23:00,
2013-01-10 14:28:00,61.0,57.1,30.33,ENE,68,0.0,6.0,87,0.00,,,0.00,Weather View 32 v70,2013-01-10 19:28:00,
2013-01-10 14:33:00,61.0,57.1,30.33,NNW,338,3.0,6.0,87,0.00,,,0.00,Weather View 32 v70,2013-01-10 19:33:00,
2013-01-10 14:38:00,62.0,58.1,30.33,NE,45,1.0,6.0,87,0.00,,,0.00,Weather View 32 v70,2013-01-10 19:38:00,
2013-01-10 14:43:00,62.0,57.8,30.33,NNW,338,1.0,6.0,86,0.00,,,0.00,Weather View 32 v70,2013-01-10 19:43:00,
2013-01-10 14:49:00,62.0,57.4,30.33,NE,45,2.0,6.0,85,0.00,,,0.00,Weather View 32 v70,2013-01-10 19:49:00,
2013-01-10 14:54:00,62.0,57.4,30.33,NE,45,3.0,6.0,85,0.00,,,0.00,Weather View 32 v70,2013-01-10 19:54:00,
2013-01-10 14:59:00,62.0,57.1,30.33,ENE,68,3.0,6.0,84,0.00,,,0.00,Weather View 32 v70,2013-01-10 19:59:00,
2013-01-10 15:04:00,62.0,56.8,30.33,NE,45,3.0,6.0,83,0.00,,,0.00,Weather View 32 v70,2013-01-10 20:04:00,
2013-01-10 15:09:00,63.0,58.1,30.33,NNW,338,1.0,6.0,84,0.00,,,0.00,Weather View 32 v70,2013-01-10 20:09:00,
2013-01-10 15:14:00,63.0,58.1,30.33,ENE,68,1.0,6.0,84,0.00,,,0.00,Weather View 32 v70,2013-01-10 20:14:00,
2013-01-10 15:19:00,63.0,57.7,30.33,ENE,68,2.0,6.0,83,0.00,,,0.00,Weather View 32 v70,2013-01-10 20:19:00,
2013-01-10 15:24:00,64.0,58.7,30.33,North,0,2.0,6.0,83,0.00,,,0.00,Weather View 32 v70,2013-01-10 20:24:00,
2013-01-10 15:30:00,65.0,59.4,30.33,ENE,68,1.0,6.0,82,0.00,,,0.00,Weather View 32 v70,2013-01-10 20:30:00,
2013-01-10 15:35:00,65.0,59.4,30.33,ESE,112,0.0,6.0,82,0.00,,,0.00,Weather View 32 v70,2013-01-10 20:35:00,
2013-01-10 15:40:00,65.0,59.0,30.33,NE,45,1.0,6.0,81,0.00,,,0.00,Weather View 32 v70,2013-01-10 20:40:00,
2013-01-10 15:45:00,65.0,59.0,30.33,NE,45,0.0,6.0,81,0.00,,,0.00,Weather View 32 v70,2013-01-10 20:45:00,
2013-01-10 15:50:00,66.0,59.6,30.33,NE,45,2.0,6.0,80,0.00,,,0.00,Weather View 32 v70,2013-01-10 20:50:00,
2013-01-10 15:55:00,65.0,59.0,30.33,NE,45,1.0,6.0,81,0.00,,,0.00,Weather View 32 v70,2013-01-10 20:55:00,
2013-01-10 16:00:00,66.0,60.0,30.34,NE,45,2.0,6.0,81,0.00,,,0.00,Weather View 32 v70,2013-01-10 21:00:00,
2013-01-10 16:05:00,66.0,60.0,30.33,NE,45,1.0,5.0,81,0.00,,,0.00,Weather View 32 v70,2013-01-10 21:05:00,
2013-01-10 16:10:00,64.0,57.7,30.33,ENE,68,0.0,5.0,80,0.00,,,0.00,Weather View 32 v70,2013-01-10 21:10:00,
2013-01-10 16:15:00,63.0,56.7,30.34,ESE,112,0.0,5.0,80,0.00,,,0.00,Weather View 32 v70,2013-01-10 21:15:00,
2013-01-10 16:20:00,63.0,56.4,30.33,ENE,68,3.0,5.0,79,0.00,,,0.00,Weather View 32 v70,2013-01-10 21:20:00,
2013-01-10 16:25:00,63.0,56.7,30.33,ENE,68,0.0,5.0,80,0.00,,,0.00,Weather View 32 v70,2013-01-10 21:25:00,
2013-01-10 16:30:00,62.0,55.7,30.33,ENE,68,0.0,5.0,80,0.00,,,0.00,Weather View 32 v70,2013-01-10 21:30:00,
2013-01-10 16:35:00,62.0,56.1,30.33,ESE,112,0.0,5.0,81,0.00,,,0.00,Weather View 32 v70,2013-01-10 21:35:00,
2013-01-10 16:40:00,62.0,56.4,30.33,NE,45,1.0,5.0,82,0.00,,,0.00,Weather View 32 v70,2013-01-10 21:40:00,
2013-01-10 16:45:00,62.0,56.4,30.33,ESE,112,0.0,5.0,82,0.00,,,0.00,Weather View 32 v70,2013-01-10 21:45:00,
2013-01-10 16:50:00,61.0,55.5,30.33,South,180,2.0,5.0,82,0.00,,,0.00,Weather View 32 v70,2013-01-10 21:50:00,
2013-01-10 16:55:00,61.0,55.8,30.34,NE,45,1.0,5.0,83,0.00,,,0.00,Weather View 32 v70,2013-01-10 21:55:00,
2013-01-10 17:00:00,61.0,56.1,30.34,South,180,1.0,5.0,84,0.00,,,0.00,Weather View 32 v70,2013-01-10 22:00:00,
2013-01-10 17:05:00,60.0,55.1,30.35,ENE,68,0.0,5.0,84,0.00,,,0.00,Weather View 32 v70,2013-01-10 22:05:00,
2013-01-10 17:10:00,60.0,55.5,30.34,ESE,112,0.0,5.0,85,0.00,,,0.00,Weather View 32 v70,2013-01-10 22:10:00,
2013-01-10 17:16:00,60.0,55.5,30.34,NE,45,0.0,5.0,85,0.00,,,0.00,Weather View 32 v70,2013-01-10 22:16:00,
2013-01-10 17:21:00,61.0,56.4,30.34,SE,135,0.0,5.0,85,0.00,,,0.00,Weather View 32 v70,2013-01-10 22:21:00,
2013-01-10 17:26:00,60.0,55.8,30.34,NW,315,1.0,5.0,86,0.00,,,0.00,Weather View 32 v70,2013-01-10 22:26:00,
2013-01-10 17:31:00,60.0,55.8,30.34,ENE,68,0.0,5.0,86,0.00,,,0.00,Weather View 32 v70,2013-01-10 22:31:00,
2013-01-10 17:36:00,60.0,55.8,30.34,NE,45,0.0,5.0,86,0.00,,,0.00,Weather View 32 v70,2013-01-10 22:36:00,
2013-01-10 17:41:00,60.0,55.8,30.34,NNE,22,1.0,5.0,86,0.00,,,0.00,Weather View 32 v70,2013-01-10 22:41:00,
2013-01-10 17:46:00,60.0,56.1,30.33,ENE,68,0.0,5.0,87,0.00,,,0.00,Weather View 32 v70,2013-01-10 22:46:00,
2013-01-10 17:51:00,59.0,55.1,30.34,SSE,158,0.0,5.0,87,0.00,,,0.00,Weather View 32 v70,2013-01-10 22:51:00,
2013-01-10 17:56:00,59.0,55.1,30.34,WNW,292,0.0,5.0,87,0.00,,,0.00,Weather View 32 v70,2013-01-10 22:56:00,
2013-01-10 18:01:00,59.0,55.1,30.34,SE,135,0.0,5.0,87,0.00,,,0.00,Weather View 32 v70,2013-01-10 23:01:00,
2013-01-10 18:06:00,59.0,55.1,30.34,NNE,22,0.0,5.0,87,0.00,,,0.00,Weather View 32 v70,2013-01-10 23:06:00,
2013-01-10 18:11:00,59.0,55.1,30.33,South,180,0.0,5.0,87,0.00,,,0.00,Weather View 32 v70,2013-01-10 23:11:00,
2013-01-10 18:16:00,59.0,55.4,30.34,ENE,68,0.0,5.0,88,0.00,,,0.00,Weather View 32 v70,2013-01-10 23:16:00,
2013-01-10 18:21:00,58.0,54.5,30.33,SSW,202,0.0,5.0,88,0.00,,,0.00,Weather View 32 v70,2013-01-10 23:21:00,
2013-01-10 18:26:00,59.0,55.8,30.34,ENE,68,0.0,5.0,89,0.00,,,0.00,Weather View 32 v70,2013-01-10 23:26:00,
2013-01-10 18:31:00,59.0,55.8,30.34,West,270,1.0,5.0,89,0.00,,,0.00,Weather View 32 v70,2013-01-10 23:31:00,
2013-01-10 18:36:00,58.0,54.8,30.33,ESE,112,0.0,5.0,89,0.00,,,0.00,Weather View 32 v70,2013-01-10 23:36:00,
2013-01-10 18:41:00,58.0,54.8,30.33,WSW,248,1.0,5.0,89,0.00,,,0.00,Weather View 32 v70,2013-01-10 23:41:00,
2013-01-10 18:46:00,58.0,55.1,30.33,WSW,248,1.0,5.0,90,0.00,,,0.00,Weather View 32 v70,2013-01-10 23:46:00,
2013-01-10 18:51:00,58.0,55.1,30.33,SSW,202,1.0,5.0,90,0.00,,,0.00,Weather View 32 v70,2013-01-10 23:51:00,
2013-01-10 18:56:00,57.0,54.1,30.33,SW,225,1.0,5.0,90,0.00,,,0.00,Weather View 32 v70,2013-01-10 23:56:00,
2013-01-10 19:01:00,57.0,54.1,30.33,ENE,68,0.0,5.0,90,0.00,,,0.00,Weather View 32 v70,2013-01-11 00:01:00,
2013-01-10 19:06:00,57.0,54.1,30.33,ESE,112,0.0,5.0,90,0.00,,,0.00,Weather View 32 v70,2013-01-11 00:06:00,
2013-01-10 19:11:00,57.0,54.1,30.33,SSW,202,0.0,5.0,90,0.00,,,0.00,Weather View 32 v70,2013-01-11 00:11:00,
2013-01-10 19:16:00,57.0,54.1,30.33,NNW,338,0.0,5.0,90,0.00,,,0.00,Weather View 32 v70,2013-01-11 00:16:00,
2013-01-10 19:21:00,57.0,54.1,30.33,West,270,0.0,5.0,90,0.00,,,0.00,Weather View 32 v70,2013-01-11 00:21:00,
2013-01-10 19:26:00,57.0,54.1,30.33,SE,135,0.0,5.0,90,0.00,,,0.00,Weather View 32 v70,2013-01-11 00:26:00,
2013-01-10 19:31:00,57.0,54.1,30.33,South,180,0.0,5.0,90,0.00,,,0.00,Weather View 32 v70,2013-01-11 00:31:00,
2013-01-10 19:36:00,57.0,54.1,30.32,WSW,248,1.0,5.0,90,0.00,,,0.00,Weather View 32 v70,2013-01-11 00:36:00,
2013-01-10 19:41:00,57.0,54.1,30.32,NNW,338,1.0,4.0,90,0.00,,,0.00,Weather View 32 v70,2013-01-11 00:41:00,
2013-01-10 19:46:00,57.0,54.1,30.32,WSW,248,1.0,4.0,90,0.00,,,0.00,Weather View 32 v70,2013-01-11 00:46:00,
2013-01-10 19:51:00,57.0,54.1,30.32,NNW,338,2.0,4.0,90,0.00,,,0.00,Weather View 32 v70,2013-01-11 00:51:00,
2013-01-10 19:56:00,57.0,54.1,30.32,WNW,292,1.0,4.0,90,0.00,,,0.00,Weather View 32 v70,2013-01-11 00:56:00,
2013-01-10 20:02:00,57.0,54.1,30.31,ENE,68,0.0,4.0,90,0.00,,,0.00,Weather View 32 v70,2013-01-11 01:02:00,
2013-01-10 20:06:00,57.0,54.1,30.32,NE,45,0.0,4.0,90,0.00,,,0.00,Weather View 32 v70,2013-01-11 01:06:00,
2013-01-10 20:12:00,58.0,55.1,30.31,ESE,112,0.0,5.0,90,0.00,,,0.00,Weather View 32 v70,2013-01-11 01:12:00,
2013-01-10 20:17:00,57.0,53.8,30.31,SSW,202,0.0,5.0,89,0.00,,,0.00,Weather View 32 v70,2013-01-11 01:17:00,
2013-01-10 20:22:00,57.0,53.8,30.31,NW,315,0.0,5.0,89,0.00,,,0.00,Weather View 32 v70,2013-01-11 01:22:00,
2013-01-10 20:27:00,57.0,53.8,30.31,West,270,2.0,5.0,89,0.00,,,0.00,Weather View 32 v70,2013-01-11 01:27:00,
2013-01-10 20:32:00,57.0,53.8,30.31,SE,135,0.0,5.0,89,0.00,,,0.00,Weather View 32 v70,2013-01-11 01:32:00,
2013-01-10 20:37:00,57.0,53.8,30.31,SE,135,2.0,5.0,89,0.00,,,0.00,Weather View 32 v70,2013-01-11 01:37:00,
2013-01-10 20:42:00,57.0,53.8,30.31,WSW,248,1.0,5.0,89,0.00,,,0.00,Weather View 32 v70,2013-01-11 01:42:00,
2013-01-10 20:47:00,57.0,53.8,30.31,East,90,0.0,5.0,89,0.00,,,0.00,Weather View 32 v70,2013-01-11 01:47:00,
2013-01-10 20:52:00,57.0,53.5,30.32,NE,45,1.0,5.0,88,0.00,,,0.00,Weather View 32 v70,2013-01-11 01:52:00,
2013-01-10 20:57:00,57.0,53.5,30.31,SE,135,0.0,5.0,88,0.00,,,0.00,Weather View 32 v70,2013-01-11 01:57:00,
2013-01-10 21:02:00,57.0,53.5,30.31,SSE,158,1.0,5.0,88,0.00,,,0.00,Weather View 32 v70,2013-01-11 02:02:00,
2013-01-10 21:07:00,57.0,53.5,30.31,ENE,68,0.0,5.0,88,0.00,,,0.00,Weather View 32 v70,2013-01-11 02:07:00,
2013-01-10 21:12:00,57.0,53.5,30.31,SE,135,1.0,5.0,88,0.00,,,0.00,Weather View 32 v70,2013-01-11 02:12:00,
2013-01-10 21:17:00,57.0,53.5,30.31,SW,225,0.0,5.0,88,0.00,,,0.00,Weather View 32 v70,2013-01-11 02:17:00,
2013-01-10 21:22:00,57.0,53.5,30.31,ENE,68,0.0,5.0,88,0.00,,,0.00,Weather View 32 v70,2013-01-11 02:22:00,
2013-01-10 21:27:00,57.0,53.5,30.31,ENE,68,0.0,4.0,88,0.00,,,0.00,Weather View 32 v70,2013-01-11 02:27:00,
2013-01-10 21:32:00,57.0,53.8,30.31,NNE,22,0.0,4.0,89,0.00,,,0.00,Weather View 32 v70,2013-01-11 02:32:00,
2013-01-10 21:37:00,57.0,53.8,30.31,WSW,248,5.0,5.0,89,0.00,,,0.00,Weather View 32 v70,2013-01-11 02:37:00,
2013-01-10 21:42:00,56.0,52.8,30.31,NNW,338,2.0,5.0,89,0.00,,,0.00,Weather View 32 v70,2013-01-11 02:42:00,
2013-01-10 21:47:00,56.0,52.8,30.31,SSW,202,4.0,5.0,89,0.00,,,0.00,Weather View 32 v70,2013-01-11 02:47:00,
2013-01-10 21:52:00,56.0,52.8,30.31,SE,135,0.0,5.0,89,0.00,,,0.00,Weather View 32 v70,2013-01-11 02:52:00,
2013-01-10 21:57:00,56.0,53.1,30.30,ENE,68,0.0,5.0,90,0.00,,,0.00,Weather View 32 v70,2013-01-11 02:57:00,
2013-01-10 22:02:00,56.0,53.4,30.30,ENE,68,0.0,5.0,91,0.00,,,0.00,Weather View 32 v70,2013-01-11 03:02:00,
2013-01-10 22:07:00,56.0,53.7,30.30,NE,45,0.0,5.0,92,0.00,,,0.00,Weather View 32 v70,2013-01-11 03:07:00,
2013-01-10 22:12:00,55.0,53.0,30.30,SSE,158,2.0,5.0,93,0.00,,,0.00,Weather View 32 v70,2013-01-11 03:12:00,
2013-01-10 22:17:00,55.0,53.3,30.30,NNE,22,2.0,5.0,94,0.00,,,0.00,Weather View 32 v70,2013-01-11 03:17:00,
2013-01-10 22:22:00,55.0,53.6,30.29,WNW,292,1.0,5.0,95,0.01,,,0.01,Weather View 32 v70,2013-01-11 03:22:00,
2013-01-10 22:27:00,55.0,53.9,30.29,NNE,22,3.0,6.0,96,0.01,,,0.01,Weather View 32 v70,2013-01-11 03:27:00,
2013-01-10 22:32:00,54.0,52.9,30.29,ENE,68,0.0,6.0,96,0.01,,,0.01,Weather View 32 v70,2013-01-11 03:32:00,
2013-01-10 22:37:00,54.0,53.2,30.28,ENE,68,1.0,6.0,97,0.01,,,0.01,Weather View 32 v70,2013-01-11 03:37:00,
2013-01-10 22:42:00,54.0,53.4,30.28,ESE,112,1.0,6.0,98,0.01,,,0.01,Weather View 32 v70,2013-01-11 03:42:00,
2013-01-10 22:47:00,54.0,53.4,30.28,SE,135,0.0,6.0,98,0.01,,,0.01,Weather View 32 v70,2013-01-11 03:47:00,
2013-01-10 22:52:00,54.0,53.7,30.28,ENE,68,0.0,6.0,99,0.01,,,0.01,Weather View 32 v70,2013-01-11 03:52:00,
2013-01-10 22:57:00,53.0,52.7,30.28,SW,225,1.0,6.0,99,0.01,,,0.01,Weather View 32 v70,2013-01-11 03:57:00,
2013-01-10 23:02:00,53.0,52.7,30.28,ENE,68,0.0,6.0,99,0.01,,,0.01,Weather View 32 v70,2013-01-11 04:02:00,
2013-01-10 23:07:00,53.0,52.7,30.28,SE,135,1.0,6.0,99,0.02,,,0.02,Weather View 32 v70,2013-01-11 04:07:00,
2013-01-10 23:12:00,53.0,53.0,30.28,SSW,202,1.0,6.0,100,0.03,,,0.03,Weather View 32 v70,2013-01-11 04:12:00,
2013-01-10 23:17:00,53.0,53.0,30.27,East,90,1.0,6.0,100,0.04,,,0.04,Weather View 32 v70,2013-01-11 04:17:00,
2013-01-10 23:22:00,53.0,53.0,30.28,WNW,292,1.0,6.0,100,0.04,,,0.05,Weather View 32 v70,2013-01-11 04:22:00,
2013-01-10 23:27:00,52.0,52.0,30.28,West,270,1.0,6.0,100,0.06,,,0.07,Weather View 32 v70,2013-01-11 04:27:00,
2013-01-10 23:33:00,52.0,52.0,30.27,ENE,68,3.0,4.0,100,0.07,,,0.08,Weather View 32 v70,2013-01-11 04:33:00,
2013-01-10 23:38:00,52.0,52.0,30.27,ESE,112,0.0,4.0,100,0.08,,,0.09,Weather View 32 v70,2013-01-11 04:38:00,
2013-01-10 23:43:00,52.0,52.0,30.27,NNE,22,1.0,4.0,100,0.09,,,0.10,Weather View 32 v70,2013-01-11 04:43:00,
2013-01-10 23:48:00,52.0,52.0,30.26,NNE,22,2.0,4.0,100,0.09,,,0.10,Weather View 32 v70,2013-01-11 04:48:00,
2013-01-10 23:53:00,51.0,51.0,30.27,NE,45,1.0,4.0,100,0.10,,,0.11,Weather View 32 v70,2013-01-11 04:53:00,
2013-01-10 23:58:00,51.0,51.0,30.26,West,270,1.0,4.0,100,0.10,,,0.11,Weather View 32 v70,2013-01-11 04:58:00,